Regional Weather Roundup
Issued by NWS Goodland, KS

Home | Current Version | Previous Version | Graphics & Text | Print | Product List | Glossary On
Versions: 1 2 3 4 5 6 7 8 9 10 11 12 13 14 15 16 17 18 19 20 21 22 23 24 25 26 27 28 29 30 31 32 33 34 35 36 37 38 39 40 41 42 43 44 45 46 47 48 49 50
000
ASUS43 KGLD 092359
RWRGLD

GOODLAND FORECAST AREA HOURLY WEATHER ROUNDUP
NATIONAL WEATHER SERVICE GOODLAND KS
600 PM MDT WED JUL 09 2014

...OFFICIAL OBSERVATIONS...

CITY           SKY/WX    TMP DP  RH WIND       PRES   REMARKS
GOODLAND KS    SUNNY     86  62  44 SE23G30   29.95F
HILL CITY KS   SUNNY     88  57  34 S21G32    29.93F
IMPERIAL NEB   SUNNY     90  58  33 S16G23    29.90F
MCCOOK NEB     SUNNY     87  61  41 S20G28    29.90F
AKRON CO       CLOUDY    86  49  27 NW24G37   30.02R THUNDER
BURLINGTON CO  MOSUNNY   88  53  30 S18       29.96F
LIMON CO       CLOUDY    84  41  21 SW14      30.03F
$$

...UNOFFICIAL OBSERVATIONS...

CITY           SKY/WX    TMP DP  RH WIND       PRES   REMARKS
COLBY KS       SUNNY     88  66  48 S22       29.96F
GOVE KS          N/A     85  32  15 CALM        N/A
NORTON KS      SUNNY     88  48  25 S17G26    29.91F
SHARON SPRINGS   N/A     90  60  36 SE13G25     N/A
YUMA CO          N/A     86  56  35 SE12        N/A
$$



USA.gov is the U.S. government's official web portal to all federal, state and local government web resources and services.